FENGYUN 1C DEB

Satellite information

Favourite Embed

Satellite Type and Status

DEBRISIN ORBIT

Key statistics

Satellite FENGYUN 1C DEB at a glance.

Uptime

9659

Days in orbit

Revolutions

≈ 14.4

Per day

Orbit

SSO

Sun Synchronous Orbit

Inclination

98.9

Latest

Satellite identification and parameters

Extended collection of information and parameters for FENGYUN 1C DEB.

Object identification

Identified? True

Debris? True

Object name: FENGYUN 1C DEB

International designator: 1999-025ETS

Object number (NORAD): 38725

Object ID (CCSDS): 38725

Country: PEOPLES REPUBLIC OF CHINA (PRC)

Current information (Y/N): Y

RCS size: SMALL

Orbital parameters

Period: 99.897 minutes

Inclination: 98.8689 deg

SMA: 7131.747 km

Apoapsis: 777.867 km

Periapsis: 729.356 km

RAAN: 54.6284 deg

Eccentricy: 0.00340112

Argument of periapsis: 64.1383 deg

Mean anomaly: 296.3305 deg

Mean motion: 14.41480971 rev/day

Mean motion (dot): 0.00014491 rev/day2

B* drag term: 0.0044387621 1/REarth

Two-line elements (TLE)

Creation date: Oct. 19, 2025, 2:20 a.m.

Reference frame: TEME

Reference center: EARTH

Epoch: Oct. 18, 2025, 1:38 p.m. UTC

TLE line 0: 0 FENGYUN 1C DEB

TLE line 1: 1 38725U 99025ETS 25291.56835366 .00014491 00000-0 44388-2 0 9999

TLE line 2: 2 38725 98.8689 54.6284 0034011 64.1383 296.3305 14.41480971725571

Live tracking on map

Real-time ground track for satellite FENGYUN 1C DEB.

In-orbit conjunctions

A list of the most updated potential collisions computed for object FENGYUN 1C DEB.

Target Orbit TCA Probability of collision Miss distance Type
SCOUT G-1 DEB LEO 2025-07-13 22:15:07 0.0001400212 326.0 (m) DEBRIS
RITE TARGET 2 SSO 2025-07-08 01:26:54 0.000424948 74.0 (m) PAYLOAD
NOAA 8 SSO 2025-03-23 17:33:25 0.0001173984 197.0 (m) PAYLOAD
RUBIN 9.1/RUBIN 9.2/PSLV SSO 2024-10-26 05:44:10 0.0001462246 726.0 (m) PAYLOAD

Associated space launch

Chinese polar orbiting meteorological satellite

FENGYUN 1C DEB was lifted into orbit during the mission ‘Long March 4B | Feng Yun 1C’, on board a Long March 4B space rocket.

The launch took place on May 10, 1999, 1:33 a.m. from Launch Complex 7.

For more information about the launch, click the button.

Launch to space Long March 4B | Feng Yun 1C
Long March 4B | Feng Yun 1C

Agency: N/A

Status: Launch Successful

Launch date: May 10, 1999, 1:33 a.m. UTC

Rocket: Long March 4B

Launch pad: Launch Complex 7

Location: Taiyuan Satellite Launch Center, People's Republic of China

...

Latest news about this satellite

There are no fresh news available about this satellite. Check back as we update our databases every day.


Newsletter sign-up

Weekly statistics, charts and insights to help you stay on top of the space industry.